Weather History for Cedar City, UT

Change the Weather History Date:

Monday, March 4, 2013

  Actual Average Record
Temperature  
Mean Temperature 40 °F 38 °F  
Max Temperature 45 °F 51 °F 68 °F (1994)
Min Temperature 35 °F 24 °F 1 °F (1966)
Degree Days  
Heating Degree Days 25 27  
Month to date heating degree days 92 111  
Since 1 July heating degree days 4712 4673  
Cooling Degree Days 0 0  
Month to date cooling degree days 0 0  
Year to date cooling degree days 0 0  
Moisture  
Dew Point 33 °F    
Average Humidity 77    
Maximum Humidity 100    
Minimum Humidity 53    
Precipitation  
Precipitation 0.12 in 0.04 in 0.52 in (1969)
Month to date precipitation 0.17 0.17  
Year to date precipitation 2.14 2.03  
Sea Level Pressure  
Sea Level Pressure 30.00 in    
Wind  
Wind Speed 8 mph (NNE)    
Max Wind Speed 17 mph    
Max Gust Speed 23 mph    
Visibility 10 miles    
Events Rain    
T = Trace of Precipitation, MM = Missing Value Source: NWS Daily Summary

Daily Weather History Graph

Daily Weather History Graph

Search for Another Location

Airport:

Trip Planner

Search our weather history database for the weather conditions in past years. The results will help you decide how hot, cold, wet, or windy it might be!

Date:

Astronomy

Mar. 04, 2013 Rise Set
Actual Time 6:59 AM MST 6:29 PM MST
Civil Twilight 6:32 AM MST 6:55 PM MST
Nautical Twilight 6:02 AM MST 7:26 PM MST
Astronomical Twilight 5:32 AM MST 7:56 PM MST
Moon 1:08 AM MST (3/4) 11:19 AM MST (3/4)
Length of Visible Light 12h 22m
Length of Day
11h 30m
Waning Gibbous, 51% of the Moon is Illuminated
Mar 4
Waning Gibbous
Mar 4
Last Quarter
Mar 11
New
Mar 19
First Quarter
Mar 27
Full

Hourly Weather History & Observations

Time (MST) Temp. Windchill Dew Point Humidity Pressure Visibility Wind Dir Wind Speed Gust Speed Precip Events Conditions
12:39 AM 39.2 °F 34.2 °F 37.4 °F 93% 29.92 in 6.0 mi NNE 6.9 mph - 0.02 in Rain Rain
12:53 AM 39.0 °F 34.0 °F 37.0 °F 93% 29.83 in 6.0 mi NE 6.9 mph - 0.05 in Rain Light Rain
1:03 AM 37.4 °F 34.9 °F 37.4 °F 100% 29.91 in 5.0 mi NE 3.5 mph - 0.02 in Rain Rain
1:53 AM 37.9 °F - 37.0 °F 97% 29.83 in 10.0 mi Calm Calm - 0.03 in Rain Light Rain
2:53 AM 37.9 °F - 37.0 °F 97% 29.81 in 10.0 mi Calm Calm - 0.01 in Rain Light Rain
3:02 AM 37.4 °F 32.1 °F 35.6 °F 93% 29.90 in 9.0 mi NNW 6.9 mph - 0.01 in   Overcast
3:53 AM 37.0 °F 32.4 °F 35.1 °F 93% 29.81 in 10.0 mi NE 5.8 mph - 0.02 in   Overcast
4:32 AM 35.6 °F 29.9 °F 33.8 °F 93% 29.91 in 10.0 mi NNE 6.9 mph - 0.00 in   Overcast
4:50 AM 35.6 °F 29.2 °F 33.8 °F 93% 29.92 in 10.0 mi NNE 8.1 mph - 0.00 in   Overcast
4:53 AM 35.1 °F 27.9 °F 33.1 °F 92% 29.84 in 8.0 mi NNE 9.2 mph - 0.00 in Rain Light Rain
5:26 AM 35.6 °F - 33.8 °F 93% 29.93 in 10.0 mi Calm Calm - 0.01 in   Overcast
5:39 AM 35.6 °F 30.7 °F 33.8 °F 93% 29.94 in 10.0 mi NW 5.8 mph - 0.01 in   Overcast
5:46 AM 35.6 °F 31.7 °F 33.8 °F 93% 29.94 in 10.0 mi NNW 4.6 mph - 0.01 in   Overcast
5:53 AM 35.1 °F 31.0 °F 34.0 °F 96% 29.88 in 10.0 mi NNW 4.6 mph - 0.01 in   Overcast
6:53 AM 35.1 °F - 34.0 °F 96% 29.90 in 10.0 mi Calm Calm - N/A   Overcast
7:53 AM 35.1 °F 31.0 °F 34.0 °F 96% 29.93 in 10.0 mi NNW 4.6 mph - N/A   Overcast
8:38 AM 37.4 °F 32.8 °F 35.6 °F 93% 30.01 in 10.0 mi North 5.8 mph - N/A   Overcast
8:53 AM 37.0 °F 30.4 °F 35.1 °F 93% 29.97 in 10.0 mi North 9.2 mph - N/A   Overcast
9:53 AM 37.0 °F 29.3 °F 35.1 °F 93% 29.99 in 10.0 mi North 11.5 mph - N/A   Overcast
10:17 AM 37.4 °F 30.3 °F 35.6 °F 93% 30.04 in 10.0 mi North 10.4 mph - N/A   Overcast
10:25 AM 37.4 °F 29.8 °F 35.6 °F 93% 30.04 in 10.0 mi North 11.5 mph - N/A   Overcast
10:46 AM 39.2 °F 31.6 °F 35.6 °F 87% 30.05 in 10.0 mi North 12.7 mph - N/A   Overcast
10:53 AM 41.0 °F 33.5 °F 37.9 °F 89% 30.01 in 10.0 mi North 13.8 mph - N/A   Overcast
11:53 AM 43.0 °F 35.7 °F 36.0 °F 76% 30.02 in 10.0 mi North 15.0 mph 19.6 mph N/A   Mostly Cloudy
12:53 PM 43.0 °F 35.4 °F 34.0 °F 71% 30.04 in 10.0 mi NNE 16.1 mph 19.6 mph N/A   Mostly Cloudy
1:41 PM 42.8 °F 36.2 °F 30.2 °F 61% 30.08 in 10.0 mi North 12.7 mph 23.0 mph N/A   Overcast
1:53 PM 42.1 °F 34.5 °F 32.0 °F 67% 30.05 in 10.0 mi NNE 15.0 mph 18.4 mph N/A   Overcast
2:33 PM 42.8 °F 36.2 °F 28.4 °F 57% 30.10 in 10.0 mi NNE 12.7 mph 20.7 mph N/A   Overcast
2:53 PM 43.0 °F 36.8 °F 30.9 °F 62% 30.06 in 10.0 mi NE 11.5 mph - N/A   Mostly Cloudy
3:53 PM 43.0 °F 38.8 °F 28.0 °F 56% 30.08 in 10.0 mi NNE 6.9 mph - N/A   Mostly Cloudy
4:53 PM 42.1 °F 37.1 °F 27.0 °F 55% 30.10 in 10.0 mi NNE 8.1 mph - N/A   Scattered Clouds
5:53 PM 41.0 °F 35.2 °F 26.1 °F 55% 30.11 in 10.0 mi NNE 9.2 mph - N/A   Clear
6:53 PM 36.0 °F 30.3 °F 25.0 °F 64% 30.16 in 10.0 mi North 6.9 mph - N/A   Clear
7:53 PM 32.0 °F 25.6 °F 24.1 °F 73% 30.18 in 10.0 mi North 6.9 mph - N/A   Clear
8:53 PM 30.0 °F 26.5 °F 24.1 °F 79% 30.19 in 10.0 mi ESE 3.5 mph - N/A   Clear
9:53 PM 26.1 °F 20.5 °F 23.0 °F 88% 30.21 in 10.0 mi WSW 4.6 mph - N/A   Clear
10:53 PM 27.0 °F 19.5 °F 23.0 °F 85% 30.20 in 10.0 mi South 6.9 mph - N/A   Clear